RH
33 32 42 49 52 48 44 41 39 43 47 47 48 53 51 48 48 46 45 41 39 40 43 46 48 45 45 41 32 17 12 11 12 12 15 19 21 23 22 22 22 21 22 22 22 22 22
30 36 34 42 52 44 38 37 40 44 49 50 52 57 50 50 45 42 39 36 36 38 41 43 44 49 50 48 40 38 32 28 25 19 16 17 21 22 23 23 22 21 20 19 20 21 21
30 33 34 38 45 39 39 37 43 50 52 51 52 51 51 48 40 34 25 21 18 20 24 33 40 45 47 51 50 49 43 39 35 31 27 24 23 24 25 24 24 22 20 19 22 22 24
28 32 33 36 36 35 37 44 49 49 47 51 50 51 46 34 27 21 11 9 6 6 7 10 13 17 27 34 30 36 44 47 46 41 40 42 37 28 26 25 23 23 22 25 31 28 31
33 30 33 34 42 46 45 52 55 52 53 51 49 40 28 21 14 8 6 6 9 10 9 10 11 13 16 15 15 15 21 24 30 36 42 46 44 37 32 28 26 26 28 32 34 34 35
28 30 34 44 41 38 49 56 58 55 50 38 28 18 11 8 7 10 15 17 18 19 17 18 19 19 18 19 18 18 18 20 22 26 29 36 36 39 40 40 37 36 39 35 34 35 41
32 33 34 36 48 60 58 54 43 28 19 14 10 8 9 13 16 20 23 23 22 21 20 22 24 23 20 21 22 22 23 23 24 25 23 27 32 42 40 42 45 47 46 39 38 40 42
42 51 59 63 62 53 40 30 18 10 8 8 10 14 18 21 23 23 22 19 17 19 16 23 27 25 22 22 22 24 25 28 30 29 28 27 30 41 43 45 45 44 43 42 41 44 44
62 63 64 56 48 37 24 14 10 11 15 17 18 21 20 19 19 22 22 24 27 28 28 25 23 23 21 18 22 22 20 21 27 29 24 26 36 34 40 51 50 49 48 47 46 50 53
62 52 41 33 24 16 14 12 14 16 16 16 14 13 15 21 25 30 31 30 30 29 21 20 19 16 10 9 11 8 10 13 16 21 26 20 37 38 41 49 59 52 56 53 54 57 59
47 40 31 23 20 19 18 16 14 12 12 13 13 20 35 36 33 30 27 27 25 9 8 11 8 7 7 5 4 8 6 7 8 10 14 24 28 44 46 47 63 62 65 62 67 75 72
29 24 21 19 18 16 14 12 10 10 10 20 34 35 35 33 31 22 20 14 10 8 7 8 7 6 6 5 4 4 6 8 8 8 9 8 14 20 42 48 58 73 85 96 96 86 68
18 17 16 17 17 11 10 12 13 15 26 36 39 36 31 30 18 13 10 8 7 9 8 8 6 6 6 7 5 7 9 9 9 9 8 8 7 17 40 56 65 69 89 97 96 89 71
11 11 11 11 10 10 9 11 30 44 42 39 36 38 33 26 15 12 11 9 10 11 10 8 7 6 6 7 10 12 11 9 12 12 11 10 9 11 17 42 58 66 78 100 99 91 89
13 13 11 8 10 30 47 48 48 40 36 30 33 34 25 20 12 10 10 12 9 8 8 8 8 6 7 10 12 10 7 6 6 9 14 14 10 8 14 34 63 64 73 90 100 95 92
10 10 23 50 58 55 50 43 40 35 34 29 31 32 20 14 12 13 13 12 9 8 8 7 6 6 6 9 10 10 8 8 8 8 13 14 14 8 13 28 37 64 77 84 100 99 86
48 58 66 67 60 46 41 39 34 30 35 30 29 28 18 15 15 15 13 12 12 12 10 8 8 7 8 8 9 10 10 11 11 12 14 20 26 12 18 25 50 55 60 76 99 99 94
68 71 74 61 51 45 39 33 29 26 36 39 27 31 28 26 20 19 19 18 14 13 11 10 9 8 8 8 9 11 12 12 12 13 15 25 35 23 32 48 50 56 53 47 84 87 100
64 77 76 68 49 44 40 29 25 34 48 49 42 37 36 25 22 25 22 18 15 13 14 16 16 14 12 12 13 12 13 14 14 14 16 24 32 39 33 45 50 45 51 56 57 79 84
82 84 65 56 49 39 35 32 26 33 43 43 40 33 28 28 29 26 21 19 20 19 17 16 14 14 15 15 16 15 15 15 16 16 20 32 34 46 41 42 49 50 46 50 86 99 92
77 76 65 53 48 39 29 24 25 31 38 42 39 34 32 26 24 23 22 19 17 17 17 17 16 17 17 16 15 13 13 13 14 15 14 19 22 40 46 42 36 46 50 44 45 44 60
82 79 68 59 49 37 32 30 33 34 38 37 34 30 26 26 25 21 22 19 18 17 18 19 20 19 15 12 10 9 9 9 9 9 12 12 13 17 23 36 37 32 35 47 49 42 40
90 84 76 69 59 44 31 29 34 39 40 37 37 36 34 28 24 25 24 22 22 21 22 20 17 13 9 7 6 6 6 6 6 7 8 11 13 13 12 14 20 29 27 23 31 44 81
86 78 73 52 44 40 35 32 34 41 46 47 42 31 32 31 28 28 26 25 24 22 18 12 8 6 5 5 5 5 6 6 7 8 9 8 9 12 11 12 13 15 20 23 21 21 38
81 67 54 47 41 35 31 31 40 47 51 35 29 30 29 30 30 28 26 25 22 15 9 6 5 5 5 5 6 7 8 12 17 19 18 14 10 12 12 12 15 16 17 18 22 22 22
73 54 48 43 39 38 38 38 43 41 39 37 32 29 27 28 26 26 27 20 14 8 6 5 5 6 6 7 12 55 71 57 52 67 69 100 100 100 58 33 21 17 18 19 29 45 23
67 57 48 43 41 45 46 48 46 43 39 33 28 27 27 32 32 24 17 11 7 5 4 5 6 9 19 22 50 100 95 100 86 100 100 100 100 100 100 100 100 63 52 42 80 97 58
72 61 53 48 51 54 55 52 50 41 34 34 29 28 30 28 18 12 8 6 5 5 6 10 19 26 27 32 94 100 99 94 84 100 98 100 100 100 100 100 100 100 97 91 100 98 65
62 55 52 56 63 66 63 55 41 37 34 34 34 31 25 15 10 7 6 5 6 10 15 27 39 50 59 58 91 97 100 93 99 89 92 95 99 99 100 100 100 97 98 100 96 100 100
Wind_Speed
11 10 11 11 11 11 11 12 13 13 14 15 17 19 20 20 21 20 19 18 17 16 16 17 17 17 17 18 18 18 19 19 19 19 19 20 21 21 21 22 23 24 24 24 24 25 27
13 13 13 13 13 13 14 15 16 16 16 18 20 21 23 22 20 18 17 16 16 18 18 18 18 19 20 21 19 19 19 20 21 21 21 22 23 24 25 26 26 27 28 28 28 28 29
14 14 14 14 15 16 17 17 18 18 19 20 22 23 22 19 17 16 16 17 16 15 15 14 15 16 16 17 18 19 21 21 21 21 22 22 25 26 28 29 29 30 30 30 30 31 29
15 14 14 15 16 18 18 18 19 20 21 23 23 22 18 16 15 15 16 15 16 16 16 14 14 15 15 16 17 18 20 22 23 25 25 26 27 28 29 31 32 33 33 33 34 34 32
15 15 16 16 17 18 19 21 21 22 21 20 20 17 16 16 16 16 17 17 19 18 18 18 17 16 16 18 19 20 20 21 22 23 26 28 29 29 31 33 34 35 36 36 34 36 35
17 17 18 18 20 20 22 19 16 16 16 15 16 15 15 15 16 18 18 19 18 19 18 19 18 18 18 20 21 23 23 23 24 25 26 28 30 31 32 34 36 39 40 38 36 39 38
17 17 17 18 19 20 17 15 12 12 14 14 14 14 16 18 18 20 21 20 20 20 21 21 22 23 20 24 21 21 24 25 25 26 30 29 31 30 35 35 39 41 40 39 36 40 41
16 18 19 18 15 14 14 14 13 12 12 13 16 17 19 21 23 24 24 26 26 24 20 26 28 24 25 23 22 23 25 27 27 28 30 32 31 33 36 38 39 40 40 37 39 38 40
17 16 15 15 14 14 15 15 14 15 17 19 20 23 24 25 27 30 30 31 31 30 28 22 23 22 20 20 22 23 26 27 30 31 35 36 34 36 37 38 39 39 40 38 40 38 38
14 14 15 15 15 14 14 15 16 17 20 23 26 28 31 32 32 33 35 35 33 28 24 20 14 18 20 23 24 27 29 31 32 34 36 39 37 38 39 39 39 43 39 40 39 41 41
16 16 17 18 18 18 18 19 21 23 24 28 30 33 35 36 37 36 32 28 23 19 19 16 19 21 25 27 28 30 32 35 37 38 38 38 39 41 44 41 42 41 41 41 41 43 43
17 19 19 19 19 20 22 24 26 27 30 33 34 36 35 36 33 27 21 20 20 19 21 21 23 28 30 30 33 35 37 39 40 42 42 40 42 43 42 42 43 42 43 44 44 42 43
22 22 22 22 22 23 25 27 29 33 36 39 40 37 35 31 22 19 20 21 21 20 24 25 29 33 33 34 36 39 41 44 43 45 45 44 42 44 44 43 43 45 45 44 42 42 41
20 20 19 20 23 26 29 31 35 38 39 38 39 39 36 26 21 19 20 23 24 26 28 31 34 36 37 39 42 44 46 47 48 50 49 46 41 42 43 44 43 43 38 42 39 39 37
19 19 20 22 25 29 34 35 34 34 35 35 35 32 28 23 21 19 22 25 28 31 34 36 36 38 41 44 47 49 50 51 50 51 51 50 43 41 43 41 40 41 39 35 39 39 39
18 18 22 27 31 31 31 32 33 35 35 35 30 28 27 23 22 23 26 27 30 33 36 39 40 44 46 49 51 52 54 51 53 52 51 49 51 44 44 43 40 38 38 37 38 39 41
21 27 29 28 26 29 30 33 36 38 35 33 29 27 27 27 27 29 31 33 35 36 38 41 45 50 53 54 54 54 55 54 52 48 49 49 49 42 42 41 39 38 38 40 40 42 43
27 26 22 24 26 31 33 37 36 36 35 32 29 28 30 33 33 32 34 37 39 40 43 46 49 52 56 57 57 56 57 56 54 50 48 46 47 43 39 37 39 40 37 39 43 45 45
28 28 26 29 30 33 37 36 37 34 33 34 35 35 33 35 36 38 39 42 45 47 49 52 54 56 59 60 61 60 59 57 55 52 51 48 45 44 41 39 36 37 36 35 39 42 42
26 28 26 28 31 35 39 40 39 35 33 32 32 35 36 38 40 42 44 47 50 55 58 58 61 63 63 63 63 64 61 60 55 53 51 51 47 46 44 41 39 36 35 36 39 40 36
28 28 29 29 33 36 36 37 35 37 38 38 37 39 40 42 44 47 50 54 56 58 60 64 68 68 70 70 68 67 66 62 60 58 57 58 54 51 47 45 43 38 37 37 40 41 42
29 30 30 32 34 36 37 37 38 40 42 43 42 43 45 46 48 51 54 57 61 65 67 70 71 72 73 74 75 72 72 69 66 60 62 62 60 57 52 50 49 46 41 41 41 41 40
29 32 33 35 38 38 38 39 42 43 44 45 45 46 48 50 53 56 59 63 66 69 71 73 76 77 78 80 80 80 77 74 72 67 63 65 64 61 58 55 53 49 47 45 45 42 39
32 31 33 34 34 36 40 41 44 46 46 49 48 49 53 56 58 61 63 67 70 73 74 76 80 83 83 85 86 83 79 75 70 66 66 66 65 63 61 58 58 53 50 46 45 44 40
30 32 34 35 37 40 41 44 46 48 49 49 50 54 57 59 62 65 69 71 73 75 78 83 85 88 87 83 75 68 61 60 52 56 54 57 60 61 58 56 51 51 49 47 45 42 40
31 32 33 36 39 42 44 46 47 49 50 52 54 57 60 64 67 71 72 74 76 80 82 86 83 76 68 54 44 35 31 30 28 25 32 32 30 31 40 46 48 50 48 47 40 39 42
32 34 36 39 42 44 45 47 48 50 53 54 57 61 64 68 70 72 74 76 81 84 84 78 65 44 38 31 24 18 22 14 22 16 16 30 29 27 20 24 32 40 38 38 43 43 45
36 39 42 44 44 46 47 48 49 51 55 58 60 63 65 67 71 74 77 80 81 79 69 52 38 34 28 22 11 14 18 20 14 15 19 17 23 25 20 29 31 33 37 39 41 47 48
38 42 44 45 46 46 48 49 52 55 57 60 62 64 66 69 73 76 78 77 70 55 42 34 34 32 26 17 14 22 23 27 23 22 19 20 22 23 29 26 33 37 44 42 48 51 52
Wind_Direction
244 256 260 265 277 288 296 300 304 304 308 310 313 318 321 319 319 317 317 318 315 312 312 306 306 305 305 306 304 300 296 294 293 289 286 286 284 283 284 287 289 290 292 293 294 295 295
246 258 265 268 276 287 294 300 302 304 307 309 313 316 320 320 322 323 324 323 322 317 311 310 309 304 302 302 302 300 297 295 294 293 290 288 287 288 287 288 288 289 292 296 297 297 297
250 259 268 272 278 288 296 302 302 304 306 308 311 313 316 322 326 332 332 332 334 337 337 331 321 316 312 309 307 305 303 299 295 292 290 288 287 285 286 286 289 289 290 292 293 294 298
256 263 270 276 287 295 300 302 301 301 305 308 308 309 315 321 324 325 331 337 342 342 340 338 333 324 318 317 317 310 305 303 302 298 294 291 287 284 284 286 288 288 289 292 294 294 296
262 269 275 282 293 296 300 300 298 300 303 306 308 313 317 318 324 332 331 334 333 331 329 326 324 321 319 315 317 312 307 304 303 300 298 296 294 292 291 288 288 287 289 291 291 292 295
263 270 276 281 290 291 293 296 298 300 304 307 309 315 321 322 321 321 322 325 325 326 325 320 322 320 322 319 313 308 305 304 305 301 298 296 294 292 289 288 288 288 289 289 293 292 294
263 270 277 283 287 289 289 291 299 299 300 305 312 317 315 313 314 316 318 316 316 316 311 311 312 311 307 305 303 302 304 306 305 300 300 298 291 289 283 284 284 285 286 287 290 291 292
268 276 279 277 277 280 282 285 289 295 303 308 307 307 308 308 310 310 310 309 308 306 301 301 303 304 307 305 302 301 302 302 299 297 296 297 294 285 285 283 280 280 281 284 284 287 289
279 280 279 277 279 283 292 303 308 310 308 307 307 305 305 305 304 304 305 301 303 302 297 286 286 295 302 304 305 306 308 307 305 302 303 301 294 289 285 278 274 275 276 280 283 285 288
272 272 274 274 276 284 292 291 292 293 293 296 299 302 304 302 300 299 297 297 295 294 293 292 303 306 309 310 308 311 310 306 302 301 299 298 296 290 284 282 278 276 278 280 282 283 286
268 270 273 278 283 286 285 285 287 290 294 296 297 299 300 301 300 299 296 291 290 287 298 300 309 311 311 314 311 315 309 307 305 302 300 301 297 289 286 285 275 278 278 279 279 283 282
269 274 276 278 284 286 288 292 295 296 297 298 301 303 302 301 299 295 289 289 290 297 300 305 309 312 309 308 308 310 308 306 305 303 303 302 294 292 287 282 277 275 277 278 277 278 275
274 275 279 282 283 283 286 292 299 303 303 303 303 303 301 295 283 282 286 289 297 302 299 301 308 308 306 306 306 306 305 306 304 302 301 297 296 289 283 277 273 275 278 276 275 273 277
274 277 278 278 282 288 295 300 302 303 304 303 301 299 296 281 276 286 293 299 303 301 302 302 304 304 303 302 301 301 303 305 305 304 298 293 290 291 287 281 277 272 273 273 272 274 270
274 276 279 285 291 298 303 303 304 306 309 309 304 295 282 273 277 288 295 304 303 302 302 300 302 300 300 300 299 302 302 300 306 302 294 291 291 289 285 281 278 275 273 276 276 268 267
272 276 286 294 300 301 302 302 302 306 309 306 298 283 279 276 284 291 294 296 297 299 303 304 302 301 300 299 300 300 300 302 301 302 295 292 292 294 287 285 283 278 275 272 270 270 270
283 286 288 291 295 301 302 306 310 311 308 302 292 283 283 283 286 288 293 296 296 297 301 305 306 303 300 298 297 298 300 302 299 293 291 289 288 295 288 289 287 279 270 268 269 268 268
285 283 286 291 297 299 306 309 308 310 306 295 285 285 284 287 286 291 294 295 297 300 302 304 303 301 299 297 298 298 299 296 296 292 288 285 286 287 285 281 280 277 272 266 263 271 272
286 280 279 293 297 302 302 310 312 312 306 298 289 286 289 292 293 294 297 299 300 299 300 300 300 297 299 299 296 295 293 292 291 289 287 286 283 282 280 278 276 273 271 266 261 263 270
284 279 283 289 300 307 305 307 312 312 305 297 292 290 288 291 295 297 300 301 301 301 300 300 300 300 300 298 295 294 292 290 288 285 281 278 276 275 276 276 274 271 271 268 266 269 273
281 281 285 296 303 307 309 309 309 308 303 297 293 293 294 296 298 301 303 304 303 302 302 301 300 300 299 296 294 291 289 287 284 280 276 272 272 269 268 269 268 267 265 264 265 267 266
276 279 287 293 302 309 308 310 308 306 302 297 296 296 296 298 301 302 303 303 302 301 300 299 301 299 298 296 293 291 287 285 281 275 271 268 267 265 263 263 264 263 260 261 260 259 264
275 283 289 294 298 301 305 307 305 302 299 296 296 296 298 300 301 302 302 302 301 301 301 300 299 299 297 295 292 290 287 283 281 274 266 263 264 263 260 259 259 259 258 257 258 260 261
280 286 293 297 298 299 300 301 302 300 297 296 295 297 300 301 301 302 303 303 303 303 303 302 301 300 297 295 292 289 286 282 277 271 265 262 260 259 259 257 256 258 256 256 258 257 256
285 290 290 293 298 300 300 302 301 299 297 296 296 299 300 300 302 303 303 303 304 306 306 305 302 299 297 296 294 290 283 279 274 269 267 265 257 257 257 255 255 257 257 255 254 255 254
285 292 296 299 298 300 301 302 300 298 298 299 299 300 301 301 302 302 305 306 307 307 306 302 301 303 302 302 300 302 308 302 290 271 249 237 240 253 258 253 250 247 250 253 252 252 250
287 294 299 302 303 301 301 300 299 300 301 301 301 302 302 304 305 306 308 309 309 307 305 304 305 304 311 316 308 299 318 305 306 292 249 239 236 240 226 230 244 242 239 238 237 236 244
288 296 301 302 302 302 300 300 301 300 300 301 302 304 306 308 309 311 310 309 308 306 308 312 313 313 320 324 321 283 295 313 315 311 280 266 245 237 239 230 232 236 234 228 222 229 233
298 303 303 302 301 299 299 300 300 301 302 305 308 309 310 312 311 311 309 309 309 312 317 318 316 318 322 316 266 272 277 284 289 290 299 288 278 262 249 236 227 229 233 228 227 220 226